2023/09/11 00:00:00,10.1,21.8
2023/09/11 00:10:00,10.0,21.4
2023/09/11 00:20:00, 9.8,21.6
2023/09/11 00:30:00, 9.5,21.7
2023/09/11 00:40:00, 9.3,21.7
2023/09/11 00:50:00, 9.0,21.6
2023/09/11 01:00:00, 9.1,21.5
2023/09/11 01:10:00, 9.2,21.5
2023/09/11 01:20:00, 9.4,21.9
2023/09/11 01:30:00, 9.5,21.4
2023/09/11 01:40:00, 9.7,21.2
2023/09/11 01:50:00, 9.5,21.3
2023/09/11 02:00:00, 8.8,21.1
2023/09/11 02:10:00, 8.2,21.1
2023/09/11 02:20:00, 7.9,21.0
2023/09/11 02:30:00, 7.8,21.0
2023/09/11 02:40:00, 8.4,20.7
2023/09/11 02:50:00, 8.6,20.4
2023/09/11 03:00:00, 8.9,20.7
2023/09/11 03:10:00, 9.1,20.5
2023/09/11 03:20:00, 9.3,20.7
2023/09/11 03:30:00, 9.5,20.7
2023/09/11 03:40:00, 9.7,20.6
2023/09/11 03:50:00, 9.8,20.5
2023/09/11 04:00:00, 9.8,20.3
2023/09/11 04:10:00, 9.7,20.4
2023/09/11 04:20:00, 9.5,20.3
2023/09/11 04:30:00, 9.3,20.2
2023/09/11 04:40:00, 9.0,20.3
2023/09/11 04:50:00, 8.7,20.2
2023/09/11 05:00:00, 8.3,20.2
2023/09/11 05:10:00, 8.1,20.2
2023/09/11 05:20:00, 7.8,20.4
2023/09/11 05:30:00, 7.5,20.5
2023/09/11 05:40:00, 7.5,20.2
2023/09/11 05:50:00, 7.5,20.2
2023/09/11 06:00:00, 7.6,20.3
2023/09/11 06:10:00, 7.5,20.4
2023/09/11 06:20:00, 6.2,20.3
2023/09/11 06:30:00, 6.2,20.3
2023/09/11 06:40:00, 6.1,20.4
2023/09/11 06:50:00, 6.2,20.4
2023/09/11 07:00:00, 6.6,20.5
2023/09/11 07:10:00, 6.6,20.8
2023/09/11 07:20:00, 7.0,21.1
2023/09/11 07:30:00, 7.4,21.5
2023/09/11 07:40:00, 7.8,21.5
2023/09/11 07:50:00, 7.8,21.7
2023/09/11 08:00:00, 7.9,21.5
2023/09/11 08:10:00, 7.4,21.7
2023/09/11 08:20:00, 5.4,22.2
2023/09/11 08:30:00, 5.3,22.2
2023/09/11 08:40:00, 5.9,22.5
2023/09/11 08:50:00, 5.6,22.8
2023/09/11 09:00:00, 6.4,23.1
2023/09/11 09:10:00, 7.3,23.8
2023/09/11 09:20:00, 8.3,24.4
2023/09/11 09:30:00, 8.7,24.3
2023/09/11 09:40:00, 8.6,24.2
2023/09/11 09:50:00, 8.6,24.6
2023/09/11 10:00:00, 8.6,25.0
2023/09/11 10:10:00, 9.1,25.4
2023/09/11 10:20:00, 9.1,25.1
2023/09/11 10:30:00, 8.8,25.4
2023/09/11 10:40:00, 8.4,25.9
2023/09/11 10:50:00, 6.9,26.1
2023/09/11 11:00:00, 5.9,26.1
2023/09/11 11:10:00, 6.1,26.0
2023/09/11 11:20:00, 3.8,26.5
2023/09/11 11:30:00, 3.2,27.3
2023/09/11 11:40:00, 4.5,27.8
2023/09/11 11:50:00, 0.0,29.3
2023/09/11 12:00:00, 0.0,29.7
2023/09/11 12:10:00, 0.0,29.6
2023/09/11 12:20:00,---,31.2
2023/09/11 12:30:00, 5.4,30.5
2023/09/11 12:40:00, 0.6,31.1
2023/09/11 12:50:00, 0.6,29.2
2023/09/11 13:00:00, 0.6,29.1
2023/09/11 13:10:00, 0.7,30.4
2023/09/11 13:20:00, 0.7,28.6
2023/09/11 13:30:00, 0.6,28.0
2023/09/11 13:40:00, 0.6,29.0
2023/09/11 13:50:00, 0.5,29.3
2023/09/11 14:00:00, 0.7,29.3
2023/09/11 14:10:00, 0.4,30.4
2023/09/11 14:20:00, 1.1,26.5
2023/09/11 14:30:00, 1.0,24.7
2023/09/11 14:40:00, 1.2,23.7
2023/09/11 14:50:00, 1.2,23.0
2023/09/11 15:00:00, 0.6,22.0
2023/09/11 15:10:00, 0.4,21.2
2023/09/11 15:20:00, 0.3,21.0
2023/09/11 15:30:00, 0.3,20.9
2023/09/11 15:40:00, 0.2,21.2
2023/09/11 15:50:00, 0.3,20.9
2023/09/11 16:00:00, 0.3,20.9
2023/09/11 16:10:00, 0.3,20.9
2023/09/11 16:20:00, 0.2,20.9
2023/09/11 16:30:00, 0.2,21.4
2023/09/11 16:40:00, 0.8,21.1
2023/09/11 16:50:00, 3.5,21.0
2023/09/11 17:00:00, 8.1,21.2
2023/09/11 17:10:00, 0.3,21.1
2023/09/11 17:20:00, 0.2,20.8
2023/09/11 17:30:00, 0.2,20.8
2023/09/11 17:40:00, 0.3,20.8
2023/09/11 17:50:00, 0.3,20.9
2023/09/11 18:00:00, 0.2,20.8
2023/09/11 18:10:00, 0.3,20.9
2023/09/11 18:20:00, 0.3,20.9
2023/09/11 18:30:00, 0.3,20.7
2023/09/11 18:40:00, 0.2,20.7
2023/09/11 18:50:00, 0.2,20.4
2023/09/11 19:00:00, 0.3,20.2
2023/09/11 19:10:00, 0.3,20.3
2023/09/11 19:20:00, 0.3,20.4
2023/09/11 19:30:00, 0.3,20.4
2023/09/11 19:40:00, 0.3,20.3
2023/09/11 19:50:00,---,20.4
2023/09/11 20:00:00, 0.3,20.2
2023/09/11 20:10:00, 0.3,20.4
2023/09/11 20:20:00, 0.3,20.4
2023/09/11 20:30:00, 0.3,20.2
2023/09/11 20:40:00, 0.3,20.1
2023/09/11 20:50:00, 0.3,19.8
2023/09/11 21:00:00, 0.3,20.1
2023/09/11 21:10:00, 0.3,20.2
2023/09/11 21:20:00, 0.3,20.1
2023/09/11 21:30:00, 0.3,19.9
2023/09/11 21:40:00, 0.3,19.6
2023/09/11 21:50:00, 0.4,19.8
2023/09/11 22:00:00, 0.3,19.5
2023/09/11 22:10:00, 0.3,19.6
2023/09/11 22:20:00, 0.3,19.5
2023/09/11 22:30:00, 0.4,19.8
2023/09/11 22:40:00, 1.0,19.5
2023/09/11 22:50:00, 1.0,19.5
2023/09/11 23:00:00, 0.1,19.4
2023/09/11 23:10:00, 0.1,19.3
2023/09/11 23:20:00, 0.1,19.4
2023/09/11 23:30:00, 0.1,19.3
2023/09/11 23:40:00, 0.1,19.1
2023/09/11 23:50:00, 0.2,19.0
